Avalon, Australia

7:44 PM AEST on September 20, 2017 (GMT +1000)
Avalon

Weather History for YMAV - April, 2014

Change the Weather History Date:

Tuesday, April 1, 2014

  Actual Average Record
Temperature  
Mean Temperature 80 °F -  
Max Temperature 96 °F - - ()
Min Temperature 64 °F - - ()
Cooling Degree Days 15    
Growing Degree Days 30 (Base 50)    
Moisture  
Dew Point 54 °F    
Average Humidity 43    
Maximum Humidity 73    
Minimum Humidity 12    
Precipitation  
Precipitation 0.00 in - - ()
Sea Level Pressure  
Sea Level Pressure 29.92 in    
Wind  
Wind Speed 9 mph ()    
Max Wind Speed 20 mph    
Max Gust Speed -    
Visibility 6.1 miles    
Events Rain    
T = Trace of Precipitation, MM = Missing Value Source: Averaged Metar Reports

Daily Weather History Graph

Daily Weather History Graph

Search for Another Location

Airport or City:

Trip Planner

Search our weather history database for the weather conditions in past years. The results will help you decide how hot, cold, wet, or windy it might be!

Date:

Astronomy

Apr. 01, 2014 Rise Set
Actual Time 7:35 AM AEDT 7:15 PM AEDT
Civil Twilight 7:09 AM AEDT 7:42 PM AEDT
Nautical Twilight 6:38 AM AEDT 8:12 PM AEDT
Astronomical Twilight 6:08 AM AEDT 8:43 PM AEDT
Moon 8:53 AM AEDT (4/1) 8:04 PM AEDT (4/1)
Length of Visible Light 12h 32m
Length of Day
11h 40m
New Moon, 2% of the Moon is Illuminated
Apr 1
New Moon
Apr 7
First Quarter
Apr 15
Full
Apr 22
Last Quarter
Apr 29
New

Hourly Weather History & Observations

Time (AEDT) Temp. Heat Index Dew Point Humidity Pressure Visibility Wind Dir Wind Speed Gust Speed Precip Events Conditions
12:00 AM 72 °F - 60 °F 56% 30.01 in - North 5.8 mph - -  
12:00 AM 71.6 °F - 59.0 °F 64% 30.01 in 6.2 mi North 5.8 mph - N/A   Overcast
12:30 AM 71.6 °F - 60.8 °F 69% 30.01 in 6.2 mi North 3.5 mph - N/A Rain Light Rain Showers
1:00 AM 71.6 °F - 59.0 °F 64% 30.01 in 6.2 mi North 6.9 mph - N/A   Overcast
1:30 AM 71.6 °F - 59.0 °F 64% 29.98 in 6.2 mi NNE 9.2 mph - N/A   Overcast
2:00 AM 71.6 °F - 59.0 °F 64% 29.98 in 6.2 mi North 11.5 mph - N/A   Overcast
2:30 AM 71.6 °F - 59.0 °F 64% 29.98 in 6.2 mi North 9.2 mph - N/A   Overcast
3:00 AM 72 °F - 59 °F 54% 29.98 in - NNE 6.9 mph - -   Overcast
3:00 AM 71.6 °F - 59.0 °F 64% 29.98 in 6.2 mi NNE 6.9 mph - N/A   Overcast
3:30 AM 71.6 °F - 59.0 °F 64% 29.95 in 6.2 mi NNE 10.4 mph - N/A   Overcast
4:00 AM 71.6 °F - 59.0 °F 64% 29.95 in 6.2 mi North 10.4 mph - N/A   Overcast
4:30 AM 71.6 °F - 57.2 °F 60% 29.95 in 6.2 mi North 10.4 mph - N/A   Overcast
5:00 AM 73.4 °F - 57.2 °F 57% 29.95 in 6.2 mi North 10.4 mph - N/A   Mostly Cloudy
5:30 AM 71.6 °F - 57.2 °F 60% 29.95 in 6.2 mi North 5.8 mph - N/A   Overcast
6:00 AM 68 °F - 56 °F 57% 29.96 in - NE 8.1 mph - -  
6:00 AM 68.0 °F - 55.4 °F 64% 29.95 in 6.2 mi NE 8.1 mph - N/A   Overcast
6:30 AM 68.0 °F - 57.2 °F 68% 29.95 in 6.2 mi NNE 8.1 mph - N/A   Unknown
7:00 AM 68.0 °F - 57.2 °F 68% 29.95 in 6.2 mi NNE 8.1 mph - N/A   Mostly Cloudy
7:30 AM 66.2 °F - 55.4 °F 68% 29.95 in 6.2 mi East 5.8 mph - N/A   Unknown
8:00 AM 66.2 °F - 57.2 °F 73% 29.95 in 6.2 mi NE 5.8 mph - N/A   Scattered Clouds
8:30 AM 71.6 °F - 59.0 °F 64% 29.98 in 6.2 mi NE 8.1 mph - N/A   Overcast
9:00 AM 71 °F - 58 °F 55% 29.99 in - South 3.5 mph - -  
9:00 AM 71.6 °F - 59.0 °F 64% 29.98 in 6.2 mi South 3.5 mph - N/A   Overcast
9:30 AM 75.2 °F - 57.2 °F 53% 29.98 in 6.2 mi ESE 4.6 mph - N/A   Overcast
10:00 AM 77.0 °F - 59.0 °F 54% 29.98 in 6.2 mi East 6.9 mph - N/A   Overcast
10:17 AM 77.0 °F - 59.0 °F 54% 29.98 in 3.1 mi East 9.2 mph - N/A   Mostly Cloudy
10:30 AM 80.6 °F 81.1 °F 59.0 °F 48% 29.98 in 6.2 mi ENE 10.4 mph - N/A   Scattered Clouds
11:00 AM 86.0 °F 84.9 °F 57.2 °F 37% 29.95 in 6.2 mi NNE 10.4 mph - N/A   Unknown
11:19 AM 87.8 °F - 51.8 °F 29% 29.95 in 6.2 mi North 17.3 mph - N/A   Unknown
11:30 AM 89.6 °F - 50.0 °F 26% 29.95 in 6.2 mi North 19.6 mph - N/A   Unknown
12:00 PM 90 °F - 49 °F 16% 29.94 in - North 16.1 mph - -  
12:00 PM 89.6 °F - 50.0 °F 26% 29.92 in 6.2 mi North 16.1 mph - N/A   Scattered Clouds
12:30 PM 89.6 °F - 50.0 °F 26% 29.92 in 6.2 mi NNW 17.3 mph - N/A   Overcast
1:00 PM 89.6 °F - 48.2 °F 24% 29.92 in 6.2 mi NW 15.0 mph - N/A   Mostly Cloudy
1:30 PM 89.6 °F - 51.8 °F 27% 29.92 in 6.2 mi SW 9.2 mph - N/A   Mostly Cloudy
2:00 PM 93.2 °F - 50.0 °F 23% 29.89 in 6.2 mi NE 4.6 mph - N/A   Mostly Cloudy
2:30 PM 95.0 °F - 48.2 °F 20% 29.86 in 6.2 mi North 15.0 mph - N/A   Scattered Clouds
3:00 PM 95 °F - 47 °F 12% 29.86 in - North 13.8 mph - -  
3:00 PM 95.0 °F - 48.2 °F 20% 29.86 in 6.2 mi North 13.8 mph - N/A   Unknown
3:30 PM 96.8 °F - 50.0 °F 20% 29.86 in 6.2 mi North 16.1 mph - N/A   Unknown
4:00 PM 93.2 °F - 48.2 °F 21% 29.83 in 6.2 mi North 16.1 mph - N/A   Scattered Clouds
4:30 PM 93.2 °F - 48.2 °F 21% 29.83 in 6.2 mi NW 16.1 mph - N/A   Scattered Clouds
5:00 PM 95.0 °F - 48.2 °F 20% 29.83 in 6.2 mi North 15.0 mph - N/A   Overcast
5:30 PM 93.2 °F - 48.2 °F 21% 29.83 in 6.2 mi NNW 17.3 mph - N/A   Overcast
6:00 PM 90 °F - 52 °F 18% 29.83 in - North 13.8 mph - -  
6:00 PM 89.6 °F - 51.8 °F 27% 29.83 in 6.2 mi North 13.8 mph - N/A   Scattered Clouds
6:30 PM 89.6 °F - 51.8 °F 27% 29.83 in 6.2 mi North 13.8 mph - N/A   Unknown
7:00 PM 89.6 °F - 51.8 °F 27% 29.83 in 6.2 mi NNE 15.0 mph - N/A   Scattered Clouds
7:30 PM 86.0 °F - 51.8 °F 31% 29.83 in 6.2 mi NNE 15.0 mph - N/A   Unknown
8:00 PM 84.2 °F - 51.8 °F 33% 29.83 in 6.2 mi NNE 12.7 mph - N/A   Unknown
8:30 PM 82.4 °F - 51.8 °F 35% 29.86 in 6.2 mi NNE 10.4 mph - N/A   Mostly Cloudy
9:00 PM 81 °F - 52 °F 26% 29.86 in - NNE 11.5 mph - -  
9:00 PM 80.6 °F - 51.8 °F 37% 29.86 in 6.2 mi NNE 11.5 mph - N/A   Scattered Clouds
9:30 PM 80.6 °F 80.3 °F 53.6 °F 39% 29.86 in 6.2 mi NNE 15.0 mph - N/A   Unknown
10:00 PM 80.6 °F 80.3 °F 53.6 °F 39% 29.86 in 6.2 mi NNE 15.0 mph - N/A   Unknown
10:30 PM 80.6 °F 80.3 °F 53.6 °F 39% 29.83 in 6.2 mi NNE 12.7 mph - N/A   Unknown
11:00 PM 78.8 °F - 53.6 °F 42% 29.83 in 6.2 mi NNE 12.7 mph - N/A   Unknown
11:30 PM 77.0 °F - 53.6 °F 44% 29.83 in 6.2 mi NNE 9.2 mph - N/A   Unknown